CW6353 Weather Reports


Display with metric or nautical units.
time (UTC)temp
F
wind
direction
speed
MPH
gust
MPH
rain 1hr
in
rain 24hr
in
rain mn
in
humidity
%
barometer
mb
20210920234551 77 93 2.0 3.0 0.00 0.02 0.02 89 1015.3
20210920234021 78 119 0.0 3.0 0.00 0.02 0.02 89 1015.3
20210920233520 78 119 0.0 1.0 0.00 0.02 0.02 88 1015.3
20210920233023 79 119 0.0 2.0 0.00 0.02 0.02 87 1015.3
20210920232520 79 119 0.0 2.0 0.00 0.02 0.02 86 1015.3
20210920232020 80 119 0.0 3.0 0.00 0.02 0.02 84 1015.3
20210920231540 80 119 2.0 4.0 0.00 0.02 0.02 83 1015.3
20210920231036 81 125 2.0 4.0 0.00 0.02 0.02 82 1015.3
20210920230520 81 125 1.0 3.0 0.00 0.02 0.02 82 1015.4
20210920230020 81 138 1.0 3.0 0.00 0.02 0.02 80 1015.4
20210920225519 81 148 0.0 4.0 0.00 0.02 0.02 81 1015.3
20210920225020 82 134 1.0 4.0 0.00 0.02 0.02 80 1015.4
20210920224534 82 132 2.0 3.0 0.00 0.02 0.02 81 1015.3
20210920224040 82 150 1.0 5.0 0.00 0.02 0.02 78 1015.2
20210920223518 82 123 1.0 5.0 0.00 0.02 0.02 77 1015.2
20210920223041 83 151 1.0 5.0 0.00 0.02 0.02 76 1015.1
20210920222518 83 159 1.0 5.0 0.00 0.02 0.02 74 1015.1
20210920222018 84 142 3.0 5.0 0.00 0.02 0.02 73 1015.1
20210920221528 84 153 1.0 7.0 0.00 0.02 0.02 73 1015.0
20210920221017 84 143 2.0 8.0 0.00 0.02 0.02 75 1015.1
20210920220518 84 142 3.0 5.0 0.00 0.02 0.02 74 1014.9
20210920220053 84 130 3.0 7.0 0.00 0.02 0.02 73 1015.0
20210920215519 84 163 4.0 9.0 0.00 0.02 0.02 74 1014.9
20210920215026 84 185 2.0 4.0 0.00 0.02 0.02 76 1015.0
20210920214518 83 167 2.0 6.0 0.00 0.02 0.02 74 1014.8
20210920214017 83 177 4.0 8.0 0.00 0.02 0.02 76 1014.8
20210920213517 83 155 3.0 8.0 0.00 0.02 0.02 75 1014.8
20210920213041 84 125 3.0 7.0 0.00 0.02 0.02 73 1014.7
20210920212517 83 170 2.0 5.0 0.00 0.02 0.02 73 1014.7
20210920212025 84 132 1.0 8.0 0.00 0.02 0.02 76 1014.8
20210920211521 84 123 3.0 9.0 0.00 0.02 0.02 73 1014.7
20210920211017 84 146 4.0 9.0 0.00 0.02 0.02 75 1014.8
20210920210516 84 112 5.0 9.0 0.00 0.02 0.02 74 1014.8
20210920210019 84 186 2.0 5.0 0.00 0.02 0.02 74 1014.9
20210920205520 84 209 2.0 7.0 0.00 0.16 0.02 71 1014.7
20210920205015 85 182 5.0 7.0 0.00 0.16 0.02 70 1015.0
20210920204541 85 169 1.0 7.0 0.00 0.16 0.02 73 1014.8
20210920204022 85 188 3.0 8.0 0.00 0.16 0.02 73 1014.9
20210920203522 85 170 4.0 8.0 0.00 0.16 0.02 72 1014.9
20210920203054 85 175 5.0 9.0 0.00 0.16 0.02 70 1014.9
20210920202512 85 134 3.0 8.0 0.00 0.16 0.02 72 1015.0
20210920202013 85 132 4.0 8.0 0.00 0.16 0.02 73 1015.1
20210920201522 84 178 4.0 8.0 0.00 0.16 0.02 72 1015.0
20210920201012 84 195 2.0 6.0 0.00 0.16 0.02 77 1015.0
20210920200511 83 126 0.0 5.0 0.00 0.16 0.02 78 1015.2
20210920200018 83 150 3.0 5.0 0.00 0.16 0.02 78 1015.1
20210920195511 83 45 1.0 5.0 0.00 0.16 0.02 76 1015.1
20210920195011 83 125 2.0 6.0 0.00 0.16 0.02 77 1015.3
20210920194527 83 75 2.0 7.0 0.00 0.16 0.02 76 1015.2
20210920194018 84 36 2.0 8.0 0.00 0.16 0.02 75 1015.2
20210920193514 84 80 3.0 10.0 0.00 0.16 0.02 76 1015.3
20210920193016 85 105 7.0 10.0 0.00 0.16 0.02 75 1015.4
20210920192508 86 86 4.0 10.0 0.00 0.16 0.02 73 1015.4
20210920192007 86 117 1.0 7.0 0.00 0.16 0.02 71 1015.5
20210920191511 86 155 3.0 7.0 0.00 0.16 0.02 73 1015.5
20210920191005 85 123 4.0 9.0 0.00 0.16 0.02 76 1015.8
20210920190507 85 104 3.0 10.0 0.00 0.16 0.02 73 1015.8
20210920190020 85 104 4.0 10.0 0.00 0.16 0.02 74 1015.9
20210920185502 84 114 2.0 9.0 0.00 0.24 0.02 75 1015.9
20210920185101 83 87 3.0 9.0 0.00 0.24 0.02 75 1016.0
20210920184635 82 74 2.0 6.0 0.00 0.24 0.02 78 1016.2
20210920184058 81 146 2.0 7.0 0.00 0.24 0.02 82 1016.2
20210920183604 81 144 3.0 7.0 0.00 0.24 0.02 81 1016.2
20210920183120 80 114 4.0 6.0 0.00 0.24 0.02 82 1016.3
20210920182629 81 108 1.0 7.0 0.00 0.24 0.02 81 1016.4
20210920182058 81 91 2.0 7.0 0.00 0.24 0.02 78 1016.5
20210920181630 82 85 3.0 7.0 0.00 0.24 0.02 80 1016.7
20210920181057 83 86 3.0 8.0 0.00 0.24 0.02 76 1016.7
20210920180609 83 126 4.0 8.0 0.00 0.24 0.02 78 1016.7
20210920180157 82 98 3.0 7.0 0.00 0.24 0.02 77 1016.8
20210920175555 82 105 3.0 7.0 0.00 0.30 0.02 79 1017.0
20210920175054 82 118 3.0 8.0 0.00 0.30 0.02 79 1017.0
20210920174639 81 145 4.0 9.0 0.00 0.30 0.02 82 1017.0
20210920174057 81 112 6.0 9.0 0.00 0.30 0.02 81 1017.0
20210920173553 81 133 3.0 9.0 0.00 0.30 0.02 83 1017.2
20210920173128 81 148 5.0 9.0 0.00 0.30 0.02 80 1017.1
20210920172551 81 123 3.0 8.0 0.00 0.30 0.02 84 1017.0
20210920172053 80 94 4.0 9.0 0.00 0.30 0.02 85 1017.1
20210920171045 79 110 4.0 9.0 0.00 0.30 0.02 87 1017.0
20210920170555 78 91 4.0 9.0 0.00 0.30 0.02 87 1017.1
20210920170121 77 30 2.0 8.0 0.00 0.30 0.02 89 1017.1
20210920165548 77 85 4.0 8.0 0.00 0.30 0.02 89 1017.3
20210920165059 77 86 3.0 8.0 0.00 0.30 0.02 89 1017.3
20210920164623 77 159 2.0 5.0 0.00 0.30 0.02 89 1017.1
20210920164055 77 84 3.0 6.0 0.00 0.30 0.02 88 1017.2
20210920163546 77 99 3.0 7.0 0.00 0.30 0.02 88 1017.2
20210920163112 77 103 3.0 7.0 0.00 0.30 0.02 87 1017.3
20210920162625 77 94 3.0 7.0 0.00 0.30 0.02 88 1017.4
20210920162044 77 102 1.0 6.0 0.00 0.30 0.02 89 1017.2
20210920161629 77 67 3.0 6.0 0.00 0.30 0.02 90 1017.4
20210920161039 77 144 2.0 5.0 0.00 0.30 0.02 90 1017.3
20210920160539 77 84 2.0 7.0 0.00 0.30 0.02 93 1017.3
20210920160129 76 134 2.0 7.0 0.00 0.30 0.02 92 1017.4
20210920155535 76 106 3.0 8.0 0.00 0.30 0.02 93 1017.5
20210920155106 75 84 4.0 8.0 0.00 0.30 0.02 93 1017.4
20210920154551 75 110 3.0 5.0 0.00 0.30 0.02 94 1017.5
20210920154035 75 74 2.0 6.0 0.00 0.30 0.02 94 1017.5
20210920153538 75 115 2.0 6.0 0.00 0.30 0.02 93 1017.4
20210920153058 75 122 3.0 4.0 0.00 0.30 0.02 95 1017.4
20210920152530 74 113 2.0 7.0 0.00 0.30 0.02 95 1017.4
20210920152036 74 80 3.0 7.0 0.00 0.30 0.02 94 1017.5
20210920151532 74 108 2.0 5.0 0.00 0.30 0.02 95 1017.5
20210920151027 74 119 2.0 7.0 0.00 0.30 0.02 95 1017.4
20210920150525 74 148 3.0 6.0 0.00 0.30 0.02 95 1017.4
20210920150103 74 130 1.0 4.0 0.00 0.30 0.02 96 1017.4
20210920145533 74 138 1.0 4.0 0.00 0.30 0.02 96 1017.3
20210920145028 74 140 2.0 5.0 0.00 0.30 0.02 95 1017.3
20210920144528 74 133 4.0 5.0 0.00 0.30 0.02 96 1017.5
20210920144023 74 132 3.0 5.0 0.00 0.30 0.02 96 1017.4
20210920143525 73 123 2.0 5.0 0.00 0.30 0.02 97 1017.3
20210920143022 73 161 2.0 7.0 0.00 0.30 0.02 97 1017.3
20210920142525 73 153 2.0 7.0 0.00 0.30 0.02 96 1017.3
20210920142020 73 142 3.0 7.0 0.00 0.30 0.02 97 1017.2
20210920141610 73 133 2.0 8.0 0.00 0.30 0.02 97 1017.2
20210920141025 73 154 3.0 8.0 0.00 0.30 0.02 97 1017.2
20210920140519 73 123 3.0 7.0 0.00 0.30 0.02 98 1017.2
20210920140123 73 121 2.0 7.0 0.00 0.30 0.02 98 1017.2
20210920135518 73 125 2.0 7.0 0.00 0.30 0.02 97 1017.1
20210920135029 73 123 4.0 7.0 0.00 0.30 0.02 98 1017.1
20210920134542 72 126 4.0 7.0 0.00 0.30 0.02 98 1016.9
20210920134022 72 159 3.0 7.0 0.00 0.30 0.02 98 1016.9
20210920133519 72 110 3.0 9.0 0.00 0.30 0.02 98 1016.7
20210920133030 72 79 6.0 9.0 0.00 0.30 0.02 98 1016.7
20210920132517 72 80 5.0 8.0 0.00 0.30 0.02 99 1016.6
20210920132021 72 119 1.0 7.0 0.00 0.30 0.02 100 1016.7
20210920131530 72 88 3.0 7.0 0.00 0.30 0.02 99 1016.7
20210920131013 72 83 3.0 9.0 0.00 0.30 0.02 99 1016.6
20210920130520 72 69 5.0 9.0 0.00 0.30 0.02 99 1016.6
20210920130022 72 96 3.0 8.0 0.00 0.30 0.02 100 1016.6
20210920125516 71 107 5.0 8.0 0.00 0.30 0.02 99 1016.6
20210920125030 71 99 4.0 7.0 0.00 0.30 0.02 99 1016.6
20210920124514 71 69 2.0 7.0 0.00 0.30 0.02 99 1016.7
20210920124014 71 121 1.0 9.0 0.00 0.30 0.02 99 1016.6
20210920123518 71 125 3.0 8.0 0.00 0.30 0.02 99 1016.8
20210920123059 71 115 4.0 9.0 0.00 0.30 0.02 99 1016.8
20210920122524 71 133 3.0 9.0 0.00 0.30 0.02 99 1016.6
20210920122011 71 115 3.0 6.0 0.00 0.30 0.02 99 1016.6
20210920121546 71 133 1.0 5.0 0.00 0.30 0.02 99 1016.6
20210920121029 71 144 3.0 9.0 0.00 0.30 0.02 99 1016.6
20210920120509 71 142 2.0 9.0 0.00 0.30 0.02 99 1016.5
20210920120009 71 130 2.0 5.0 0.00 0.30 0.02 99 1016.5
20210920115516 71 155 1.0 7.0 0.00 0.30 0.02 99 1016.5
20210920115008 71 123 2.0 7.0 0.00 0.30 0.02 99 1016.4
20210920114515 71 132 1.0 7.0 0.00 0.30 0.02 99 1016.4
20210920114008 71 107 2.0 7.0 0.00 0.30 0.02 99 1016.3
20210920113513 71 121 1.0 7.0 0.00 0.30 0.02 99 1016.3
20210920113018 71 122 2.0 7.0 0.00 0.30 0.02 99 1016.3
20210920112511 71 122 1.0 7.0 0.00 0.30 0.02 99 1016.2
20210920112010 71 101 3.0 7.0 0.00 0.30 0.02 99 1016.2
20210920111524 71 72 2.0 6.0 0.00 0.30 0.02 99 1016.2
20210920111006 71 109 3.0 7.0 0.00 0.30 0.02 99 1016.1
20210920110507 71 74 3.0 7.0 0.00 0.30 0.02 99 1016.1
20210920110007 71 94 3.0 7.0 0.00 0.30 0.02 99 1016.0
20210920105507 71 131 2.0 7.0 0.00 0.30 0.02 99 1016.1
20210920105006 71 72 3.0 7.0 0.00 0.30 0.02 99 1016.0
20210920104540 71 77 3.0 9.0 0.00 0.30 0.02 99 1016.1
20210920104006 71 120 3.0 9.0 0.00 0.30 0.02 99 1016.1
20210920103505 71 74 4.0 9.0 0.01 0.30 0.02 99 1016.1
20210920103008 71 96 2.0 8.0 0.01 0.30 0.02 99 1016.1
20210920102505 71 101 4.0 7.0 0.02 0.30 0.02 99 1015.9
20210920102005 71 92 3.0 6.0 0.02 0.30 0.02 99 1015.9
20210920101505 71 94 3.0 9.0 0.02 0.30 0.02 99 1015.9
20210920101017 71 121 3.0 9.0 0.02 0.30 0.02 99 1015.8
20210920100505 71 84 2.0 8.0 0.02 0.30 0.02 99 1015.9
20210920100015 71 72 4.0 8.0 0.02 0.30 0.02 99 1015.8
20210920095514 71 86 3.0 8.0 0.02 0.30 0.02 99 1015.8
20210920095004 71 128 3.0 8.0 0.02 0.30 0.02 99 1015.8
20210920094504 71 106 4.0 7.0 0.02 0.30 0.02 99 1015.8
20210920094008 71 109 3.0 8.0 0.01 0.28 0.01 99 1015.7
20210920093507 71 90 4.0 7.0 0.01 0.28 0.01 99 1015.6
20210920093004 71 96 3.0 6.0 0.01 0.28 0.01 99 1015.6
20210920092503 71 95 3.0 6.0 0.00 0.28 0.00 99 1015.7
20210920092003 71 94 2.0 5.0 0.00 0.28 0.00 99 1015.7
20210920091513 71 132 1.0 6.0 0.00 0.28 0.00 99 1015.7
20210920091003 71 101 3.0 6.0 0.00 0.28 0.00 99 1015.6
20210920090503 72 79 3.0 6.0 0.00 0.28 0.00 99 1015.5
20210920090028 72 117 2.0 6.0 0.00 0.28 0.00 99 1015.6
20210920085506 72 105 3.0 6.0 0.00 0.28 0.00 99 1015.8
20210920085005 72 92 1.0 4.0 0.00 0.28 0.00 99 1015.7
20210920084503 72 130 1.0 4.0 0.00 0.28 0.00 99 1015.6
20210920084004 72 121 2.0 4.0 0.00 0.28 0.00 99 1015.6
20210920083503 72 96 1.0 7.0 0.00 0.28 0.00 99 1015.6
20210920083008 72 107 4.0 7.0 0.00 0.28 0.00 99 1015.6
20210920082505 72 135 3.0 5.0 0.00 0.28 0.00 99 1015.7
20210920082002 72 109 2.0 6.0 0.00 0.28 0.00 99 1015.6
20210920081625 72 101 3.0 6.0 0.00 0.28 0.00 99 1015.7
20210920081147 72 128 2.0 6.0 0.00 0.28 0.00 99 1015.8
20210920080600 72 135 2.0 6.0 0.00 0.28 0.00 99 1015.7
20210920080117 72 124 2.0 7.0 0.00 0.28 0.00 99 1015.7
20210920075615 72 120 3.0 7.0 0.00 0.28 0.00 99 1015.7
20210920075114 72 114 2.0 11.0 0.00 0.28 0.00 99 1015.9
20210920074620 72 109 3.0 11.0 0.00 0.28 0.00 99 1016.0
20210920074057 72 105 4.0 7.0 0.00 0.28 0.00 99 1016.0
20210920073604 72 139 2.0 10.0 0.00 0.28 0.00 99 1016.0
20210920073127 72 110 4.0 8.0 0.00 0.28 0.00 99 1016.1
20210920072056 72 130 4.0 7.0 0.00 0.28 0.00 99 1016.2
20210920071623 72 111 2.0 7.0 0.00 0.28 0.00 99 1016.2
20210920071055 72 114 2.0 7.0 0.00 0.28 0.00 99 1016.3
20210920070558 72 117 3.0 7.0 0.00 0.28 0.00 99 1016.3
20210920070125 72 119 3.0 6.0 0.00 0.28 0.00 99 1016.4
20210920065552 72 115 2.0 7.0 0.00 0.28 0.00 99 1016.4
20210920065109 72 89 2.0 7.0 0.00 0.28 0.00 99 1016.4
20210920064555 72 70 2.0 9.0 0.00 0.28 0.00 99 1016.5
20210920064051 72 80 5.0 9.0 0.00 0.28 0.00 99 1016.6
20210920063610 72 94 3.0 7.0 0.00 0.28 0.00 99 1016.6
20210920063133 72 98 2.0 9.0 0.00 0.28 0.00 99 1016.3
20210920062550 72 101 3.0 9.0 0.00 0.28 0.00 99 1016.5
20210920062050 72 102 3.0 9.0 0.00 0.28 0.00 99 1016.4
20210920061619 71 113 4.0 8.0 0.00 0.28 0.00 99 1016.6
20210920061047 71 87 4.0 10.0 0.00 0.28 0.00 99 1016.6
20210920060606 71 100 4.0 11.0 0.00 0.28 0.00 99 1016.7
20210920060239 71 79 3.0 11.0 0.00 0.28 0.00 99 1016.6
20210920055617 71 125 5.0 9.0 0.00 0.30 0.00 99 1016.8
20210920055045 71 109 5.0 10.0 0.00 0.30 0.00 99 1016.7
20210920054639 71 117 5.0 13.0 0.00 0.30 0.00 99 1016.7
20210920054045 71 127 5.0 13.0 0.00 0.30 0.00 99 1016.8
20210920053543 71 101 5.0 10.0 0.00 0.30 0.00 99 1016.6
20210920053056 71 102 3.0 7.0 0.00 0.30 0.00 99 1016.8
20210920052554 71 109 3.0 7.0 0.00 0.30 0.00 99 1016.9
20210920052040 71 128 2.0 7.0 0.00 0.30 0.00 99 1016.8
20210920051543 71 98 2.0 7.0 0.00 0.30 0.00 99 1016.9
20210920051039 71 84 4.0 7.0 0.00 0.30 0.00 99 1017.0
20210920050541 71 130 2.0 6.0 0.00 0.30 0.00 99 1017.0
20210920050123 71 113 2.0 6.0 0.00 0.30 0.00 99 1017.0
20210920045537 71 118 0.0 4.0 0.00 0.30 0.30 99 1016.9
20210920045037 71 94 1.0 4.0 0.00 0.30 0.30 99 1016.9
20210920044548 71 124 1.0 4.0 0.00 0.30 0.30 99 1016.9
20210920044117 71 92 1.0 4.0 0.00 0.30 0.30 99 1016.8
20210920043536 71 91 2.0 5.0 0.00 0.30 0.30 99 1016.8
20210920043058 71 106 2.0 5.0 0.00 0.30 0.30 99 1016.9
20210920042547 71 128 2.0 5.0 0.00 0.30 0.30 99 1016.7
20210920042038 71 103 1.0 5.0 0.00 0.30 0.30 99 1016.8
20210920041543 71 82 2.0 5.0 0.00 0.30 0.30 99 1016.8
20210920041035 71 102 1.0 6.0 0.00 0.30 0.30 99 1016.8
20210920040545 71 52 2.0 6.0 0.00 0.30 0.30 99 1016.9
20210920040058 71 68 3.0 6.0 0.00 0.30 0.30 99 1016.9
20210920035547 71 83 3.0 6.0 0.00 0.30 0.30 99 1017.0
20210920035038 71 81 3.0 7.0 0.00 0.30 0.30 99 1017.0
20210920034553 71 98 3.0 8.0 0.00 0.30 0.30 99 1017.0
20210920034045 71 84 4.0 8.0 0.00 0.30 0.30 99 1016.9
20210920033550 71 86 3.0 8.0 0.00 0.30 0.30 99 1017.0
20210920033055 71 103 3.0 8.0 0.00 0.30 0.30 99 1017.2
20210920032535 71 67 3.0 8.0 0.00 0.30 0.30 99 1017.1
20210920032033 71 89 4.0 10.0 0.00 0.30 0.30 99 1017.1
20210920031616 71 98 4.0 10.0 0.00 0.30 0.30 99 1017.1
20210920031032 71 86 3.0 10.0 0.00 0.30 0.30 99 1017.0
20210920030542 71 70 4.0 10.0 0.00 0.30 0.30 99 1017.0
20210920030110 71 66 3.0 8.0 0.00 0.30 0.30 99 1017.0
20210920025534 71 92 3.0 8.0 0.00 0.30 0.30 99 1017.2
20210920025037 71 90 4.0 8.0 0.00 0.30 0.30 99 1017.1
20210920024549 71 92 2.0 7.0 0.00 0.30 0.30 99 1017.1
20210920024031 71 107 3.0 9.0 0.00 0.30 0.30 99 1017.1
20210920023533 71 93 2.0 9.0 0.00 0.30 0.30 99 1017.1
20210920023121 71 97 3.0 9.0 0.00 0.30 0.30 99 1016.8
20210920022530 71 68 4.0 11.0 0.00 0.30 0.30 98 1016.7
20210920022030 71 78 6.0 11.0 0.00 0.30 0.30 98 1016.8
20210920021530 71 92 6.0 11.0 0.00 0.30 0.30 98 1016.9
20210920021031 71 130 4.0 11.0 0.00 0.30 0.30 98 1017.0
20210920020532 71 78 6.0 10.0 0.00 0.30 0.30 98 1016.8
20210920020047 71 38 5.0 13.0 0.00 0.30 0.30 98 1016.9
20210920015527 71 117 4.0 13.0 0.00 0.30 0.30 98 1016.9
20210920015044 71 88 6.0 17.0 0.00 0.30 0.30 98 1016.9
20210920014555 71 81 6.0 17.0 0.00 0.30 0.30 98 1016.9
20210920014026 71 96 7.0 15.0 0.00 0.30 0.30 98 1016.8
20210920013525 72 86 6.0 14.0 0.00 0.30 0.30 98 1016.9
20210920013056 72 76 6.0 14.0 0.00 0.30 0.30 98 1016.8
20210920012530 72 44 7.0 14.0 0.00 0.30 0.30 98 1016.8
20210920012023 72 88 5.0 11.0 0.00 0.30 0.30 98 1016.8
20210920011529 72 82 7.0 12.0 0.00 0.30 0.30 98 1016.8
20210920011022 72 102 6.0 12.0 0.00 0.30 0.30 98 1016.7
20210920010522 72 111 6.0 12.0 0.00 0.30 0.30 98 1016.8
20210920010033 72 80 6.0 13.0 0.00 0.30 0.30 98 1016.7
20210920005533 72 109 6.0 13.0 0.00 0.30 0.30 98 1016.8
20210920005038 72 116 8.0 13.0 0.00 0.30 0.30 97 1016.6
20210920004638 72 101 6.0 12.0 0.00 0.30 0.30 98 1016.4
20210920004027 73 165 6.0 12.0 0.00 0.30 0.30 98 1016.3
20210920003529 73 55 7.0 14.0 0.00 0.30 0.30 98 1016.3
20210920003041 73 93 6.0 14.0 0.00 0.30 0.30 98 1016.2
20210920002522 73 87 4.0 10.0 0.00 0.30 0.30 98 1016.1
20210920002034 73 75 5.0 12.0 0.00 0.30 0.30 98 1016.0
20210920001550 73 108 4.0 12.0 0.00 0.30 0.30 98 1016.0
20210920001025 73 101 6.0 12.0 0.00 0.30 0.30 98 1015.9
20210920000519 73 77 4.0 9.0 0.00 0.30 0.30 98 1016.0
20210920000025 73 124 4.0 8.0 0.00 0.30 0.30 98 1015.8
20210919235522 73 89 4.0 7.0 0.00 0.31 0.30 98 1015.8
20210919235019 73 104 3.0 5.0 0.00 0.31 0.30 98 1015.9